Balbieriškis

Lithuania     54˚30′46″N   23˚53′29″E
temp.,
°C
wind,
m/s
gust,
m/s
humid.,
%
clouds,
%
prec.,
mm/h
press.,
hPa
HPBL,
m
2 december, wed
wed223:00−3˚sse37830 0.0 1031281
02:00−3˚se36810 0.0 1031278
05:00−4˚se37800 0.0 1031280
08:00−4˚se36800 0.0 1031255
11:00−2˚se36760 0.0 1031288
14:00−1˚ese35740 0.0 1028366
17:00−3˚ese37870 0.0 1027255
20:00−4˚se37891 0.0 1026330
3 december, thu
thu323:00−4˚se389232 0.0 1024315
02:00−4˚se389232 0.0 1023318
05:00−4˚sse499137 0.0 1022432
08:00−2˚sse498762 0.0 1021683
11:00−1˚sse61079100 0.0 1020833
14:00sse61077100 0.0 1019765
17:00−1˚se61279100 0.0 1018602
20:00sse81384100 0.0 1017642
4 december, fri
fri423:00se7158599 0.0 1016645
02:00+1˚se8158499 0.0 1015701
05:00+1˚se8158299 0.0 1014677
08:00+2˚sse81683100 0.0 1013704
11:00+2˚sse91582100 0.0 1013760
14:00+4˚sse81687100 0.0 1012824
17:00+5˚sse71688100 0.0 1011824
20:00+5˚se81786100 0.0 1012813
5 december, sat
sat523:00+5˚sse81782100 0.0 1012857
02:00+4˚se8178496 0.0 1013719
05:00+4˚se8168494 0.0 1013753
08:00+5˚se8168597 0.0 1014726
11:00+6˚se81585100 0.0 1015768
14:00+7˚se81584100 0.0 1014789
17:00+7˚se81584100 0.0 1015769
20:00+7˚se81584100 0.0 1016736
6 december, sun
sun623:00+7˚se81584100 0.0 1016766
02:00+7˚se71483100 0.0 1017755
05:00+6˚se71484100 0.0 1016653
08:00+6˚se71483100 0.0 1017685
11:00+6˚se81579100 0.0 1017795
14:00+6˚se91574100 0.0 10161002
17:00+5˚se91575100 0.0 10161077
20:00+5˚se91674100 0.0 10171001